闪电 3-42星 (MOLNIYA 3-42)

导读 | 星芒AI

MOLNIYA 3-42 是一颗俄罗斯通信卫星,属于“闪电”(Molniya)系列,主要用于提供广播和通信服务。该卫星采用高椭圆轨道,适合覆盖高纬度地区。它由俄罗斯航天机构运营,支持电视信号传输和数据通信。MOLNIYA 3-42 在轨运行期间为俄罗斯及周边地区提供了重要的通信基础设施。

基本信息
目录编号:
22178
目录名称:
MOLNIYA 3-42
国际标识:
1992-067A
轨道中心:
EARTH
卫星名称:
闪电 3-42星
卫星全名:
闪电 3-42星 (MOLNIYA 3-42)
卫星状态:
在轨 (已飞行12068 天)
发射日期:
1992-10-14 UTC
国别 :
俄罗斯(独联体) (CIS)
星等 :
--
轨道信息
数据来源 国际轨道数据
星历时间: 2025-10-27T16:47:09+0800
1天前
查看轨道信息
半长轴: 24939.322km
偏心率: 0.6891561
轨道倾角: 64.570°
近地点辐角 249.481°
升交点赤经 76.203°
平近点角 28.241°
近地点: 1374.101km
远地点: 35748.273km
周期: 653.261分钟
每日圈数: 2.204326
详细信息
平衡模式:
三轴稳定
覆盖范围:
全球
运营商:
俄罗斯国家航天集团
运营商所在国:
俄罗斯
制造商(研发单位):
普里克拉德诺伊·梅哈尼基设计局
制造商所在国:
俄罗斯联邦
使用方式:
暂无
卫星简介
闪电(Molniya (Satellite))系列卫星是苏联/俄罗斯于1965年至2004年间发射的军事和通信卫星。这些卫星使用高度偏心的椭圆轨道,称为Molniya轨道(即闪电轨道),在高纬度地区具有较长的停留时间。该卫星状态未知。
2D轨道图
3D轨道图
轨道高度分析图
轨道倾角分析图
轨道综合分析图
查看轨道综合分析图